Location: *
(37.4917°N, 71.5558°E)
Time: 09:00:52
(UTC+00:00)

GPS 2-04 Rocket1 - Pass Details

Date: 09 April 2020
Orbit: 419 x 548 km, 35.6° (Epoch: 03 June)

Event Time Altitude Azimuth Distance (km) Brightness Sun altitude
Rises 15:12:03 0° 234° (SW) 2,608 6.7 -17.4°
Reaches altitude 10° 15:14:22 10° 225° (SW) 1,745 5.6 -17.9°
Enters shadow 15:17:53 34° 164° (SSE) 887 3.5 -18.5°
